| time (UTC) | temp F | wind direction | speed knots | gust knots | rain 1hr in | rain 24hr in | rain mn in | humidity % | barometer mb |
| 20260506124355 | 52 | 267 | 3.5 | 14.8 | 0.00 | 0.21 | 0.21 | 76 | 1019.1 |
| 20260506124349 | 52 | 180 | 3.5 | 13.0 | 0.00 | 0.21 | 0.21 | 75 | 1019.0 |
| 20260506123350 | 52 | 207 | 3.5 | 14.8 | 0.00 | 0.21 | 0.21 | 77 | 1019.0 |
| 20260506122853 | 52 | 202 | 2.6 | 13.9 | 0.00 | 0.21 | 0.21 | 80 | 1018.9 |
| 20260506122848 | 52 | 239 | 3.5 | 13.9 | 0.00 | 0.21 | 0.21 | 79 | 1019.1 |
| 20260506121850 | 52 | 239 | 2.6 | 11.3 | 0.00 | 0.21 | 0.21 | 81 | 1018.8 |
| 20260506121347 | 52 | 247 | 2.6 | 9.6 | 0.00 | 0.21 | 0.21 | 82 | 1018.8 |
| 20260506120848 | 52 | 254 | 1.7 | 10.4 | 0.00 | 0.21 | 0.21 | 82 | 1018.8 |
| 20260506120350 | 52 | 267 | 1.7 | 10.4 | 0.00 | 0.21 | 0.21 | 83 | 1018.8 |
| 20260506115848 | 52 | 256 | 1.7 | 10.4 | 0.00 | 0.21 | 0.21 | 83 | 1018.8 |
| 20260506115349 | 52 | 214 | 1.7 | 10.4 | 0.01 | 0.21 | 0.21 | 84 | 1018.8 |
| 20260506114849 | 52 | 197 | 1.7 | 9.6 | 0.01 | 0.21 | 0.21 | 84 | 1018.8 |
| 20260506114347 | 52 | 204 | 1.7 | 9.6 | 0.01 | 0.21 | 0.21 | 85 | 1018.7 |
| 20260506113849 | 52 | 256 | 1.7 | 7.8 | 0.01 | 0.21 | 0.21 | 85 | 1018.6 |
| 20260506113349 | 52 | 244 | 1.7 | 9.6 | 0.01 | 0.21 | 0.21 | 85 | 1018.5 |
| 20260506112848 | 52 | 266 | 1.7 | 9.6 | 0.01 | 0.21 | 0.21 | 85 | 1018.5 |
| 20260506112349 | 52 | 249 | 1.7 | 13.0 | 0.01 | 0.21 | 0.21 | 85 | 1018.4 |
| 20260506111846 | 52 | 281 | 2.6 | 13.0 | 0.01 | 0.21 | 0.21 | 86 | 1018.3 |
| 20260506111345 | 52 | 314 | 2.6 | 12.2 | 0.01 | 0.21 | 0.21 | 86 | 1018.3 |
| 20260506110845 | 52 | 251 | 2.6 | 13.0 | 0.01 | 0.21 | 0.21 | 87 | 1018.2 |
| 20260506110347 | 52 | 211 | 2.6 | 14.8 | 0.01 | 0.21 | 0.21 | 87 | 1018.3 |
| 20260506105847 | 52 | 247 | 2.6 | 14.8 | 0.01 | 0.21 | 0.21 | 87 | 1018.2 |
| 20260506105345 | 52 | 247 | 3.5 | 12.2 | 0.00 | 0.20 | 0.20 | 88 | 1018.2 |
| 20260506104845 | 52 | 208 | 3.5 | 10.4 | 0.01 | 0.20 | 0.20 | 88 | 1018.1 |
| 20260506104346 | 53 | 247 | 2.6 | 9.6 | 0.02 | 0.20 | 0.20 | 89 | 1018.0 |
| 20260506103845 | 53 | 248 | 2.6 | 9.6 | 0.02 | 0.20 | 0.20 | 89 | 1018.0 |
| 20260506103347 | 53 | 220 | 3.5 | 15.6 | 0.02 | 0.20 | 0.20 | 89 | 1018.0 |
| 20260506102847 | 53 | 263 | 3.5 | 15.6 | 0.02 | 0.20 | 0.20 | 89 | 1017.8 |
| 20260506102347 | 54 | 242 | 2.6 | 12.2 | 0.02 | 0.20 | 0.20 | 89 | 1017.7 |
| 20260506101845 | 54 | 226 | 2.6 | 10.4 | 0.02 | 0.20 | 0.20 | 90 | 1017.6 |
| 20260506101351 | 54 | 271 | 2.6 | 13.0 | 0.03 | 0.20 | 0.20 | 89 | 1017.5 |
| 20260506101347 | 54 | 244 | 2.6 | 13.0 | 0.03 | 0.20 | 0.20 | 90 | 1017.5 |
| 20260506100347 | 54 | 240 | 2.6 | 10.4 | 0.03 | 0.20 | 0.20 | 89 | 1017.3 |
| 20260506095845 | 54 | 231 | 2.6 | 8.7 | 0.03 | 0.20 | 0.20 | 89 | 1017.2 |
| 20260506095345 | 55 | 164 | 1.7 | 8.7 | 0.03 | 0.20 | 0.20 | 89 | 1017.1 |
| 20260506094847 | 55 | 263 | 1.7 | 9.6 | 0.02 | 0.20 | 0.20 | 88 | 1017.0 |
| 20260506094346 | 55 | 230 | 2.6 | 18.2 | 0.02 | 0.19 | 0.20 | 88 | 1017.1 |
| 20260506093845 | 56 | 278 | 2.6 | 18.2 | 0.02 | 0.19 | 0.19 | 88 | 1017.1 |
| 20260506093347 | 56 | 226 | 2.6 | 9.6 | 0.01 | 0.18 | 0.18 | 87 | 1017.0 |
| 20260506092846 | 56 | 255 | 3.5 | 11.3 | 0.01 | 0.18 | 0.18 | 88 | 1016.6 |
| 20260506092347 | 57 | 246 | 3.5 | 21.7 | 0.01 | 0.18 | 0.18 | 87 | 1016.3 |
| 20260506091845 | 58 | 263 | 2.6 | 21.7 | 0.01 | 0.18 | 0.18 | 87 | 1016.2 |
| 20260506091345 | 58 | 289 | 3.5 | 11.3 | 0.01 | 0.17 | 0.17 | 88 | 1016.1 |
| 20260506090846 | 58 | 303 | 5.2 | 11.3 | 0.02 | 0.17 | 0.17 | 88 | 1015.9 |
| 20260506090842 | 58 | 352 | 4.3 | 8.7 | 0.06 | 0.17 | 0.17 | 88 | 1015.8 |
| 20260506085839 | 58 | 319 | 4.3 | 10.4 | 0.11 | 0.17 | 0.17 | 88 | 1015.8 |
| 20260506085339 | 58 | 336 | 2.6 | 10.4 | 0.17 | 0.17 | 0.17 | 88 | 1015.7 |
| 20260506084845 | 58 | 336 | 3.5 | 7.8 | 0.17 | 0.17 | 0.17 | 88 | 1015.7 |
| 20260506084841 | 58 | 330 | 2.6 | 7.8 | 0.17 | 0.17 | 0.17 | 88 | 1015.7 |
| 20260506083840 | 58 | 306 | 3.5 | 7.8 | 0.17 | 0.17 | 0.17 | 87 | 1015.7 |
| 20260506083338 | 58 | 323 | 2.6 | 7.8 | 0.17 | 0.17 | 0.17 | 87 | 1015.8 |
| 20260506082844 | 58 | 323 | 4.3 | 10.4 | 0.17 | 0.17 | 0.17 | 86 | 1015.9 |
| 20260506082839 | 58 | 312 | 3.5 | 7.8 | 0.17 | 0.17 | 0.17 | 87 | 1015.9 |
| 20260506081838 | 58 | 336 | 4.3 | 10.4 | 0.17 | 0.17 | 0.17 | 85 | 1016.0 |
| 20260506081343 | 59 | 290 | 4.3 | 13.0 | 0.15 | 0.15 | 0.16 | 81 | 1016.0 |
| 20260506081337 | 59 | 304 | 5.2 | 10.4 | 0.17 | 0.17 | 0.17 | 84 | 1016.0 |
| 20260506080340 | 62 | 278 | 2.6 | 9.6 | 0.06 | 0.06 | 0.06 | 75 | 1015.9 |
| 20260506080335 | 60 | 293 | 1.7 | 13.0 | 0.11 | 0.11 | 0.11 | 77 | 1016.2 |
| 20260506073327 | 62 | 307 | 4.3 | 9.6 | 0.00 | 0.00 | 0.00 | 69 | 1015.0 |
| 20260506072828 | 62 | 337 | 3.5 | 13.0 | 0.00 | 0.00 | 0.00 | 67 | 1015.1 |
| 20260506072332 | 63 | 330 | 4.3 | 10.4 | 0.00 | 0.00 | 0.00 | 64 | 1015.0 |
| 20260506072326 | 63 | 285 | 2.6 | 13.0 | 0.00 | 0.00 | 0.00 | 64 | 1015.1 |
| 20260506071956 | 63 | 335 | 4.3 | 10.4 | 0.00 | 0.00 | 0.00 | 63 | 1014.9 |
| 20260506070824 | 63 | 9 | 4.3 | 13.0 | 0.00 | 0.00 | 0.00 | 62 | 1014.9 |
| 20260506070326 | 63 | 359 | 4.3 | 13.0 | 0.00 | 0.00 | 0.00 | 61 | 1014.9 |
| 20260506062325 | 64 | 318 | 6.1 | 14.8 | 0.00 | 0.00 | 0.00 | 59 | 1015.4 |
| 20260506061823 | 64 | 352 | 6.1 | 14.8 | 0.00 | 0.00 | 0.00 | 59 | 1015.4 |
| 20260506061332 | 64 | 331 | 6.1 | 13.9 | 0.00 | 0.00 | 0.00 | 58 | 1015.4 |
| 20260506061324 | 64 | 342 | 5.2 | 13.0 | 0.00 | 0.00 | 0.00 | 59 | 1015.4 |
| 20260506060330 | 65 | 355 | 5.2 | 14.8 | 0.00 | 0.00 | 0.00 | 57 | 1015.5 |
| 20260506060324 | 65 | 324 | 5.2 | 13.9 | 0.00 | 0.00 | 0.00 | 57 | 1015.3 |
| 20260506051323 | 65 | 338 | 4.3 | 10.4 | 0.00 | 0.00 | 0.00 | 56 | 1016.0 |
| 20260506050825 | 66 | 331 | 4.3 | 8.7 | 0.00 | 0.00 | 0.00 | 54 | 1016.1 |
| 20260506050821 | 65 | 324 | 4.3 | 8.7 | 0.00 | 0.00 | 0.00 | 55 | 1016.1 |
| 20260506044823 | 66 | 346 | 4.3 | 11.3 | 0.00 | 0.00 | 0.00 | 54 | 1016.5 |
| 20260506044328 | 66 | 314 | 5.2 | 13.9 | 0.00 | 0.00 | 0.00 | 54 | 1016.7 |
| 20260506044322 | 66 | 308 | 5.2 | 12.2 | 0.00 | 0.00 | 0.00 | 54 | 1016.6 |
| 20260506043821 | 66 | 290 | 6.1 | 12.2 | 0.00 | 0.00 | 0.00 | 54 | 1016.6 |
| 20260506042820 | 65 | 3 | 4.3 | 13.9 | 0.00 | 0.00 | 0.00 | 54 | 1016.7 |
| 20260506042318 | 65 | 347 | 4.3 | 13.9 | 0.00 | 0.00 | 0.00 | 55 | 1016.8 |
| 20260506041819 | 65 | 337 | 5.2 | 13.9 | 0.00 | 0.00 | 0.00 | 54 | 1016.9 |
| 20260506041318 | 65 | 301 | 4.3 | 12.2 | 0.00 | 0.00 | 0.00 | 54 | 1016.9 |
| 20260506040824 | 65 | 312 | 4.3 | 11.3 | 0.00 | 0.00 | 0.00 | 55 | 1017.1 |
| 20260506040818 | 65 | 333 | 4.3 | 12.2 | 0.00 | 0.00 | 0.00 | 54 | 1016.8 |
| 20260506040318 | 65 | 329 | 3.5 | 11.3 | 0.00 | 0.00 | 0.00 | 55 | 1017.0 |
| 20260506035316 | 65 | 285 | 3.5 | 11.3 | 0.00 | 0.00 | 0.00 | 55 | 1017.2 |
| 20260506034818 | 65 | 317 | 4.3 | 15.6 | 0.00 | 0.00 | 0.00 | 56 | 1017.4 |
| 20260506034318 | 65 | 314 | 5.2 | 15.6 | 0.00 | 0.00 | 0.00 | 55 | 1017.4 |
| 20260506033822 | 64 | 324 | 5.2 | 14.8 | 0.00 | 0.00 | 0.00 | 56 | 1017.5 |
| 20260506033817 | 65 | 320 | 4.3 | 13.0 | 0.00 | 0.00 | 0.00 | 54 | 1017.6 |
| 20260506033316 | 65 | 304 | 5.2 | 14.8 | 0.00 | 0.00 | 0.00 | 56 | 1017.6 |
| 20260506032325 | 64 | 285 | 3.5 | 12.2 | 0.00 | 0.00 | 0.00 | 57 | 1017.7 |
| 20260506032319 | 64 | 292 | 5.2 | 12.2 | 0.00 | 0.00 | 0.00 | 57 | 1017.6 |
| 20260506031319 | 64 | 333 | 3.5 | 9.6 | 0.00 | 0.00 | 0.00 | 57 | 1017.8 |
| 20260506030818 | 64 | 359 | 3.5 | 7.8 | 0.00 | 0.00 | 0.00 | 57 | 1017.9 |
| 20260506030322 | 64 | 327 | 2.6 | 8.7 | 0.00 | 0.00 | 0.00 | 58 | 1018.1 |
| 20260506030316 | 64 | 296 | 3.5 | 8.7 | 0.00 | 0.00 | 0.00 | 58 | 1018.0 |
| 20260506025316 | 63 | 334 | 2.6 | 6.1 | 0.00 | 0.00 | 0.00 | 58 | 1018.2 |
| 20260506024825 | 63 | 0 | 4.3 | 9.6 | 0.00 | 0.00 | 0.00 | 57 | 1018.4 |
| 20260506024819 | 63 | 335 | 3.5 | 9.6 | 0.00 | 0.00 | 0.00 | 58 | 1018.3 |
| 20260506023822 | 64 | 4 | 2.6 | 9.6 | 0.00 | 0.00 | 0.00 | 57 | 1018.6 |
| 20260506023816 | 64 | 349 | 3.5 | 9.6 | 0.00 | 0.00 | 0.00 | 57 | 1018.6 |
| 20260506022816 | 64 | 351 | 3.5 | 10.4 | 0.00 | 0.00 | 0.00 | 56 | 1018.8 |
| 20260506022322 | 64 | 283 | 4.3 | 9.6 | 0.00 | 0.00 | 0.00 | 58 | 1019.0 |
| 20260506022316 | 64 | 336 | 4.3 | 10.4 | 0.00 | 0.00 | 0.00 | 56 | 1018.9 |
| 20260506021316 | 63 | 299 | 4.3 | 8.7 | 0.00 | 0.00 | 0.00 | 58 | 1019.1 |
| 20260506020816 | 63 | 301 | 4.3 | 8.7 | 0.00 | 0.00 | 0.00 | 59 | 1019.2 |
| 20260506020318 | 63 | 331 | 3.5 | 8.7 | 0.00 | 0.00 | 0.00 | 59 | 1019.2 |
| 20260506015815 | 62 | 316 | 3.5 | 8.7 | 0.00 | 0.00 | 0.00 | 60 | 1019.4 |
| 20260506015317 | 62 | 301 | 4.3 | 9.6 | 0.00 | 0.00 | 0.00 | 60 | 1019.6 |
| 20260506014822 | 62 | 301 | 3.5 | 9.6 | 0.00 | 0.00 | 0.00 | 60 | 1019.8 |
| 20260506014816 | 62 | 306 | 4.3 | 9.6 | 0.00 | 0.00 | 0.00 | 60 | 1019.7 |
| 20260506013817 | 62 | 318 | 2.6 | 7.8 | 0.00 | 0.00 | 0.00 | 60 | 1019.9 |
| 20260506013314 | 62 | 309 | 2.6 | 8.7 | 0.00 | 0.00 | 0.00 | 60 | 1020.0 |
| 20260506012812 | 62 | 337 | 2.6 | 8.7 | 0.00 | 0.00 | 0.00 | 59 | 1020.1 |
| 20260506012311 | 62 | 4 | 2.6 | 9.6 | 0.00 | 0.00 | 0.00 | 61 | 1020.1 |
| 20260506011809 | 62 | 287 | 4.3 | 10.4 | 0.00 | 0.00 | 0.00 | 60 | 1020.2 |
| 20260506011310 | 62 | 287 | 4.3 | 10.4 | 0.00 | 0.00 | 0.00 | 62 | 1020.2 |
| 20260506010811 | 61 | 331 | 4.3 | 9.6 | 0.00 | 0.00 | 0.00 | 62 | 1020.2 |
| 20260506010309 | 61 | 337 | 4.3 | 9.6 | 0.00 | 0.00 | 0.00 | 63 | 1020.3 |
| 20260506005810 | 61 | 328 | 4.3 | 9.6 | 0.00 | 0.00 | 0.00 | 63 | 1020.4 |
| 20260506005310 | 61 | 298 | 3.5 | 9.6 | 0.00 | 0.00 | 0.00 | 62 | 1020.5 |
| 20260506004806 | 61 | 301 | 3.5 | 7.8 | 0.00 | 0.00 | 0.00 | 62 | 1020.5 |
| 20260506004305 | 61 | 341 | 3.5 | 7.8 | 0.00 | 0.00 | 0.00 | 63 | 1020.6 |
| 20260506003809 | 61 | 308 | 3.5 | 8.7 | 0.00 | 0.00 | 0.00 | 63 | 1020.6 |
| 20260506003805 | 61 | 297 | 4.3 | 9.6 | 0.00 | 0.00 | 0.00 | 63 | 1020.7 |
| 20260506002800 | 61 | 308 | 4.3 | 9.6 | 0.00 | 0.00 | 0.00 | 62 | 1020.8 |
| 20260506002259 | 61 | 303 | 4.3 | 8.7 | 0.00 | 0.00 | 0.00 | 62 | 1020.8 |
| 20260506001758 | 61 | 303 | 2.6 | 8.7 | 0.00 | 0.00 | 0.00 | 62 | 1020.9 |
| 20260506001300 | 61 | 306 | 3.5 | 7.0 | 0.00 | 0.00 | 0.00 | 62 | 1020.9 |
| 20260506000759 | 60 | 297 | 4.3 | 8.7 | 0.00 | 0.00 | 0.00 | 62 | 1020.9 |
| 20260506000303 | 60 | 300 | 3.5 | 7.8 | 0.00 | 0.00 | 0.00 | 62 | 1020.9 |
| 20260506000257 | 60 | 330 | 4.3 | 8.7 | 0.00 | 0.00 | 0.00 | 61 | 1021.0 |
| 20260505235255 | 60 | 304 | 3.5 | 7.8 | 0.00 | 0.00 | 0.00 | 62 | 1021.0 |
| 20260505234755 | 60 | 305 | 4.3 | 8.7 | 0.00 | 0.00 | 0.00 | 62 | 1021.0 |
| 20260505234255 | 60 | 303 | 4.3 | 9.6 | 0.00 | 0.00 | 0.00 | 62 | 1021.0 |
| 20260505233756 | 60 | 326 | 3.5 | 9.6 | 0.00 | 0.00 | 0.00 | 62 | 1021.0 |
| 20260505233257 | 60 | 327 | 2.6 | 8.7 | 0.00 | 0.00 | 0.00 | 62 | 1021.1 |
| 20260505232755 | 60 | 311 | 3.5 | 8.7 | 0.00 | 0.00 | 0.00 | 62 | 1021.1 |
| 20260505232301 | 60 | 311 | 3.5 | 10.4 | 0.00 | 0.00 | 0.00 | 63 | 1021.2 |
| 20260505232255 | 60 | 313 | 4.3 | 10.4 | 0.00 | 0.00 | 0.00 | 63 | 1021.2 |
| 20260505231256 | 60 | 347 | 2.6 | 7.8 | 0.00 | 0.00 | 0.00 | 63 | 1021.2 |
| 20260505230754 | 60 | 327 | 1.7 | 7.0 | 0.00 | 0.00 | 0.00 | 63 | 1021.3 |
| 20260505230255 | 60 | 308 | 1.7 | 6.1 | 0.00 | 0.00 | 0.00 | 64 | 1021.3 |
| 20260505225755 | 60 | 310 | 0.9 | 6.1 | 0.00 | 0.00 | 0.00 | 64 | 1021.3 |
| 20260505225254 | 60 | 310 | 1.7 | 6.1 | 0.00 | 0.00 | 0.00 | 65 | 1021.4 |
| 20260505224754 | 59 | 314 | 1.7 | 6.1 | 0.00 | 0.00 | 0.00 | 64 | 1021.4 |
| 20260505224253 | 59 | 322 | 2.6 | 7.8 | 0.00 | 0.00 | 0.00 | 65 | 1021.4 |
| 20260505223754 | 59 | 310 | 3.5 | 7.8 | 0.00 | 0.00 | 0.00 | 65 | 1021.4 |
| 20260505223251 | 59 | 326 | 2.6 | 7.0 | 0.00 | 0.00 | 0.00 | 65 | 1021.4 |
| 20260505222803 | 59 | 329 | 2.6 | 8.7 | 0.00 | 0.00 | 0.00 | 65 | 1021.4 |
| 20260505222752 | 59 | 338 | 2.6 | 5.2 | 0.00 | 0.00 | 0.00 | 65 | 1021.4 |
| 20260505222255 | 59 | 322 | 2.6 | 8.7 | 0.00 | 0.00 | 0.00 | 65 | 1021.4 |
| 20260505221252 | 59 | 309 | 2.6 | 8.7 | 0.00 | 0.00 | 0.00 | 65 | 1021.4 |
| 20260505220752 | 59 | 297 | 2.6 | 7.8 | 0.00 | 0.00 | 0.00 | 65 | 1021.5 |
| 20260505220251 | 59 | 314 | 2.6 | 6.1 | 0.00 | 0.00 | 0.00 | 66 | 1021.5 |
| 20260505215753 | 59 | 340 | 2.6 | 6.1 | 0.00 | 0.00 | 0.00 | 65 | 1021.5 |
| 20260505215252 | 59 | 307 | 2.6 | 7.0 | 0.00 | 0.00 | 0.00 | 66 | 1021.4 |
| 20260505214749 | 59 | 300 | 2.6 | 7.0 | 0.00 | 0.00 | 0.00 | 66 | 1021.4 |
| 20260505214249 | 59 | 317 | 2.6 | 6.1 | 0.00 | 0.00 | 0.00 | 66 | 1021.4 |
| 20260505213748 | 59 | 315 | 1.7 | 7.8 | 0.00 | 0.00 | 0.00 | 65 | 1021.4 |
| 20260505213248 | 59 | 300 | 2.6 | 7.8 | 0.00 | 0.00 | 0.00 | 65 | 1021.4 |
| 20260505212749 | 59 | 306 | 1.7 | 7.0 | 0.00 | 0.00 | 0.00 | 65 | 1021.3 |
| 20260505212245 | 59 | 310 | 1.7 | 6.1 | 0.00 | 0.00 | 0.00 | 65 | 1021.4 |
| 20260505211747 | 59 | 310 | 1.7 | 6.1 | 0.00 | 0.00 | 0.00 | 65 | 1021.3 |
| 20260505211246 | 59 | 305 | 2.6 | 7.0 | 0.00 | 0.00 | 0.00 | 65 | 1021.3 |
| 20260505210747 | 59 | 302 | 2.6 | 7.0 | 0.00 | 0.00 | 0.00 | 66 | 1021.4 |
| 20260505210247 | 59 | 314 | 2.6 | 8.7 | 0.00 | 0.00 | 0.00 | 66 | 1021.3 |
| 20260505205746 | 59 | 308 | 2.6 | 8.7 | 0.00 | 0.00 | 0.00 | 66 | 1021.3 |
| 20260505205245 | 59 | 306 | 2.6 | 7.0 | 0.00 | 0.00 | 0.00 | 66 | 1021.4 |
| 20260505204745 | 59 | 310 | 2.6 | 7.8 | 0.00 | 0.00 | 0.00 | 66 | 1021.4 |
| 20260505204245 | 59 | 311 | 2.6 | 7.8 | 0.00 | 0.00 | 0.00 | 66 | 1021.4 |
| 20260505203749 | 59 | 310 | 2.6 | 7.8 | 0.00 | 0.00 | 0.00 | 66 | 1021.4 |
| 20260505203743 | 59 | 316 | 2.6 | 7.0 | 0.00 | 0.00 | 0.00 | 66 | 1021.4 |
| 20260505202745 | 59 | 316 | 1.7 | 7.8 | 0.00 | 0.00 | 0.00 | 66 | 1021.5 |
| 20260505202243 | 59 | 314 | 1.7 | 4.3 | 0.00 | 0.00 | 0.00 | 66 | 1021.4 |
| 20260505201743 | 59 | 316 | 1.7 | 4.3 | 0.00 | 0.00 | 0.00 | 66 | 1021.5 |
| 20260505201241 | 59 | 311 | 2.6 | 4.3 | 0.00 | 0.00 | 0.00 | 66 | 1021.4 |
| 20260505200749 | 59 | 309 | 0.9 | 4.3 | 0.00 | 0.00 | 0.00 | 66 | 1021.4 |
| 20260505200741 | 59 | 320 | 1.7 | 4.3 | 0.00 | 0.00 | 0.00 | 66 | 1021.4 |
| 20260505195741 | 59 | 308 | 0.9 | 4.3 | 0.00 | 0.00 | 0.00 | 66 | 1021.4 |
| 20260505195241 | 59 | 308 | 1.7 | 4.3 | 0.00 | 0.00 | 0.00 | 66 | 1021.4 |
| 20260505194750 | 59 | 317 | 2.6 | 7.0 | 0.00 | 0.00 | 0.00 | 66 | 1021.4 |
| 20260505194743 | 59 | 308 | 1.7 | 4.3 | 0.00 | 0.00 | 0.00 | 66 | 1021.4 |
| 20260505193741 | 59 | 312 | 1.7 | 7.0 | 0.00 | 0.00 | 0.00 | 66 | 1021.4 |
| 20260505193242 | 59 | 315 | 1.7 | 4.3 | 0.00 | 0.00 | 0.00 | 66 | 1021.4 |
| 20260505192741 | 59 | 316 | 1.7 | 4.3 | 0.00 | 0.00 | 0.00 | 66 | 1021.4 |
| 20260505192241 | 59 | 315 | 0.9 | 3.5 | 0.00 | 0.00 | 0.00 | 66 | 1021.4 |
| 20260505191743 | 59 | 314 | 1.7 | 3.5 | 0.00 | 0.00 | 0.00 | 66 | 1021.5 |
| 20260505191249 | 59 | 314 | 1.7 | 4.3 | 0.00 | 0.00 | 0.00 | 66 | 1021.4 |
| 20260505191241 | 59 | 314 | 1.7 | 4.3 | 0.00 | 0.00 | 0.00 | 66 | 1021.4 |
| 20260505190910 | 59 | 316 | 0.9 | 3.5 | 0.00 | 0.00 | 0.00 | 67 | 1021.5 |
| 20260505190241 | 59 | 315 | 0.9 | 3.5 | 0.00 | 0.00 | 0.00 | 66 | 1021.4 |
| 20260505185241 | 59 | 316 | 0.9 | 3.5 | 0.00 | 0.00 | 0.00 | 66 | 1021.5 |
| 20260505184741 | 59 | 316 | 0.9 | 2.6 | 0.00 | 0.00 | 0.00 | 67 | 1021.4 |
| 20260505184250 | 59 | 316 | 0.9 | 3.5 | 0.00 | 0.00 | 0.00 | 67 | 1021.5 |
| 20260505184241 | 59 | 316 | 0.9 | 3.5 | 0.00 | 0.00 | 0.00 | 67 | 1021.4 |
| 20260505183741 | 59 | 316 | 1.7 | 3.5 | 0.00 | 0.00 | 0.00 | 67 | 1021.5 |
| 20260505183241 | 59 | 317 | 0.9 | 2.6 | 0.00 | 0.00 | 0.00 | 67 | 1021.5 |
| 20260505182241 | 59 | 317 | 0.9 | 2.6 | 0.00 | 0.00 | 0.00 | 68 | 1021.5 |
| 20260505181743 | 59 | 317 | 0.9 | 1.7 | 0.00 | 0.00 | 0.00 | 67 | 1021.5 |
| 20260505181241 | 59 | 317 | 0.9 | 2.6 | 0.00 | 0.00 | 0.00 | 67 | 1021.5 |
| 20260505180904 | 59 | 317 | 0.9 | 3.5 | 0.00 | 0.00 | 0.00 | 67 | 1021.5 |
| 20260505175736 | 59 | 318 | 1.7 | 4.3 | 0.00 | 0.00 | 0.00 | 67 | 1021.5 |
| 20260505175234 | 59 | 318 | 1.7 | 4.3 | 0.00 | 0.00 | 0.00 | 67 | 1021.5 |
| 20260505174739 | 59 | 317 | 0.9 | 2.6 | 0.00 | 0.00 | 0.00 | 67 | 1021.5 |
| 20260505174733 | 59 | 318 | 0.9 | 3.5 | 0.00 | 0.00 | 0.00 | 67 | 1021.6 |
| 20260505173733 | 59 | 317 | 0.9 | 2.6 | 0.00 | 0.00 | 0.00 | 67 | 1021.6 |
| 20260505173233 | 59 | 317 | 0.9 | 2.6 | 0.00 | 0.00 | 0.00 | 67 | 1021.6 |
| 20260505172731 | 59 | 317 | 0.9 | 4.3 | 0.00 | 0.00 | 0.00 | 67 | 1021.7 |
| 20260505172230 | 59 | 317 | 1.7 | 4.3 | 0.00 | 0.00 | 0.00 | 67 | 1021.7 |
| 20260505171733 | 59 | 311 | 1.7 | 3.5 | 0.00 | 0.00 | 0.00 | 67 | 1021.8 |
| 20260505171232 | 59 | 311 | 1.7 | 3.5 | 0.00 | 0.00 | 0.00 | 67 | 1021.9 |
| 20260505170732 | 59 | 311 | 1.7 | 3.5 | 0.00 | 0.00 | 0.00 | 67 | 1021.9 |
| 20260505170231 | 59 | 311 | 1.7 | 3.5 | 0.00 | 0.00 | 0.00 | 67 | 1021.9 |
| 20260505165732 | 59 | 312 | 0.9 | 3.5 | 0.00 | 0.00 | 0.00 | 67 | 1021.9 |
| 20260505165231 | 59 | 311 | 0.9 | 3.5 | 0.00 | 0.00 | 0.00 | 67 | 1021.9 |
| 20260505164731 | 59 | 311 | 1.7 | 3.5 | 0.00 | 0.00 | 0.00 | 67 | 1021.9 |
| 20260505164231 | 59 | 311 | 1.7 | 4.3 | 0.00 | 0.00 | 0.00 | 67 | 1022.0 |
| 20260505163730 | 59 | 310 | 1.7 | 4.3 | 0.00 | 0.00 | 0.00 | 68 | 1022.0 |
| 20260505163229 | 59 | 310 | 1.7 | 3.5 | 0.00 | 0.00 | 0.00 | 68 | 1022.1 |
| 20260505162728 | 59 | 310 | 1.7 | 4.3 | 0.00 | 0.00 | 0.00 | 68 | 1022.0 |
| 20260505162230 | 59 | 310 | 1.7 | 6.1 | 0.00 | 0.00 | 0.00 | 68 | 1022.1 |
| 20260505161730 | 59 | 312 | 2.6 | 6.1 | 0.00 | 0.00 | 0.00 | 69 | 1022.1 |
| 20260505161230 | 59 | 313 | 2.6 | 7.0 | 0.00 | 0.00 | 0.00 | 70 | 1022.2 |
| 20260505160730 | 59 | 339 | 1.7 | 7.0 | 0.00 | 0.00 | 0.00 | 71 | 1022.2 |
| 20260505160228 | 59 | 278 | 0.9 | 6.1 | 0.00 | 0.00 | 0.00 | 73 | 1022.2 |
| 20260505152729 | 59 | 270 | 0.0 | 1.7 | 0.00 | 0.00 | 0.00 | 74 | 1022.5 |
| 20260505152227 | 59 | 270 | 0.0 | 1.7 | 0.00 | 0.00 | 0.00 | 75 | 1022.6 |
| 20260505151727 | 59 | 270 | 0.9 | 1.7 | 0.00 | 0.00 | 0.00 | 74 | 1022.7 |
| 20260505151228 | 59 | 270 | 0.0 | 2.6 | 0.00 | 0.00 | 0.00 | 74 | 1022.6 |
| 20260505150727 | 59 | 270 | 0.0 | 2.6 | 0.00 | 0.00 | 0.00 | 74 | 1022.8 |
| 20260505150227 | 59 | 270 | 0.9 | 2.6 | 0.00 | 0.00 | 0.00 | 74 | 1022.8 |
| 20260505124717 | 60 | 256 | 0.0 | 1.7 | 0.00 | 0.00 | 0.00 | 73 | 1023.2 |